N76810 KBHM-

Flight info

Callsign N76810
Flight time N/A
Altitude VFR/035
Route SOUTH
Aircraft SF50/L-DOV/C

Departure

Time 2026-05-06 01:55
Airport Birmingham-Shuttlesworth International Airport (KBHM)

Arrival

Time N/A
Airport -
Time Latitude Longitude Altitude Speed Heading
2026-05-06 01:44 33.56629 -86.74326 626 ft 0 kts 327°
2026-05-06 01:47 33.56642 -86.74349 629 ft 9 kts 295°
2026-05-06 01:48 33.56644 -86.74417 625 ft 8 kts 263°
2026-05-06 01:48 33.56641 -86.74495 623 ft 10 kts 270°
2026-05-06 01:48 33.56642 -86.74578 623 ft 8 kts 270°
2026-05-06 01:48 33.56641 -86.74614 623 ft 0 kts 268°
2026-05-06 01:49 33.56641 -86.74656 624 ft 12 kts 270°
2026-05-06 01:49 33.56650 -86.74745 626 ft 8 kts 282°
2026-05-06 01:49 33.56637 -86.74808 625 ft 10 kts 246°
2026-05-06 01:50 33.56621 -86.74856 625 ft 0 kts 253°
2026-05-06 01:50 33.56667 -86.74853 626 ft 6 kts
2026-05-06 01:50 33.56733 -86.74852 627 ft 19 kts 359°
2026-05-06 01:50 33.56868 -86.74850 633 ft 20 kts 359°
2026-05-06 01:51 33.57001 -86.74850 631 ft 17 kts
2026-05-06 01:51 33.57101 -86.74850 633 ft 13 kts 359°
2026-05-06 01:51 33.57181 -86.74852 634 ft 10 kts 359°
2026-05-06 01:51 33.57263 -86.74852 636 ft 13 kts
2026-05-06 01:52 33.57311 -86.74819 636 ft 0 kts 75°
2026-05-06 01:54 33.57288 -86.74729 636 ft 13 kts 152°
2026-05-06 01:55 33.57135 -86.74720 634 ft 51 kts 180°
2026-05-06 01:55 33.56556 -86.74721 683 ft 112 kts 180°
2026-05-06 01:55 33.55643 -86.74703 1017 ft 148 kts 179°
2026-05-06 01:55 33.54542 -86.74638 1551 ft 167 kts 173°
2026-05-06 01:56 33.53401 -86.74364 2326 ft 168 kts 167°
2026-05-06 01:56 33.52255 -86.74042 3082 ft 170 kts 167°
2026-05-06 01:56 33.51054 -86.73697 3500 ft 193 kts 167°
2026-05-06 01:56 33.49664 -86.73298 3511 ft 218 kts 167°
2026-05-06 01:57 33.48097 -86.72848 3515 ft 243 kts 167°
2026-05-06 01:57 33.46405 -86.72360 3508 ft 256 kts 167°
2026-05-06 01:57 33.44650 -86.71857 3508 ft 262 kts 167°
2026-05-06 01:57 33.42899 -86.71354 3511 ft 263 kts 167°
2026-05-06 01:58 33.41116 -86.70841 3513 ft 264 kts 167°
2026-05-06 01:58 33.39330 -86.70331 3508 ft 264 kts 167°
2026-05-06 01:58 33.37543 -86.69817 3511 ft 264 kts 167°
2026-05-06 01:58 33.35756 -86.69306 3511 ft 264 kts 167°
2026-05-06 01:59 33.33969 -86.68794 3508 ft 264 kts 167°
2026-05-06 01:59 33.32180 -86.68283 3509 ft 264 kts 167°
2026-05-06 01:59 33.30397 -86.67771 3508 ft 264 kts 167°
2026-05-06 01:59 33.28609 -86.67260 3509 ft 264 kts 167°
2026-05-06 02:00 33.26824 -86.66751 3508 ft 264 kts 167°
2026-05-06 02:00 33.25063 -86.66246 3508 ft 264 kts 167°
2026-05-06 02:00 33.23262 -86.65878 3503 ft 263 kts 178°
2026-05-06 02:00 33.21431 -86.65937 3503 ft 264 kts 184°
2026-05-06 02:01 33.19595 -86.66070 3501 ft 265 kts 182°
2026-05-06 02:01 33.17756 -86.66072 3501 ft 264 kts 179°
2026-05-06 02:01 33.15925 -86.66008 3501 ft 263 kts 179°
2026-05-06 02:01 33.14097 -86.65982 3500 ft 263 kts 180°
2026-05-06 02:02 33.12269 -86.65974 3500 ft 263 kts 180°
2026-05-06 02:02 33.10441 -86.65954 3500 ft 263 kts 180°
2026-05-06 02:02 33.08639 -86.65934 3500 ft 263 kts 180°
2026-05-06 02:02 33.06812 -86.65916 3500 ft 263 kts 180°
2026-05-06 02:03 33.04984 -86.65895 3500 ft 263 kts 180°
2026-05-06 02:03 33.03157 -86.65875 3500 ft 263 kts 180°
2026-05-06 02:03 33.01329 -86.65858 3500 ft 263 kts 180°
2026-05-06 02:03 32.99503 -86.65836 3500 ft 263 kts 180°
2026-05-06 02:04 32.97675 -86.65818 3502 ft 263 kts 180°
2026-05-06 02:04 32.95849 -86.65798 3500 ft 263 kts 180°
2026-05-06 02:04 32.94046 -86.65778 3500 ft 263 kts 180°
2026-05-06 02:04 32.92218 -86.65761 3500 ft 263 kts 180°
2026-05-06 02:05 32.90391 -86.65739 3500 ft 263 kts 180°
2026-05-06 02:05 32.88564 -86.65720 3504 ft 263 kts 180°
2026-05-06 02:05 32.86736 -86.65702 3500 ft 263 kts 180°
2026-05-06 02:05 32.84909 -86.65681 3500 ft 263 kts 180°
2026-05-06 02:06 32.83081 -86.65663 3505 ft 263 kts 180°
2026-05-06 02:06 32.81255 -86.65643 3500 ft 263 kts 180°
2026-05-06 02:06 32.79453 -86.65624 3500 ft 263 kts 180°
2026-05-06 02:06 32.77625 -86.65605 3500 ft 263 kts 180°
2026-05-06 02:07 32.75797 -86.65585 3500 ft 263 kts 180°
2026-05-06 02:07 32.73970 -86.65566 3500 ft 263 kts 180°
2026-05-06 02:07 32.72142 -86.65547 3501 ft 263 kts 180°
2026-05-06 02:07 32.70314 -86.65528 3500 ft 263 kts 180°
2026-05-06 02:08 32.68486 -86.65507 3500 ft 263 kts 180°
2026-05-06 02:08 32.66658 -86.65489 3500 ft 263 kts 180°
2026-05-06 02:08 32.64831 -86.65468 3500 ft 263 kts 180°
2026-05-06 02:08 32.63027 -86.65450 3500 ft 263 kts 180°
2026-05-06 02:09 32.61201 -86.65432 3500 ft 263 kts 180°
2026-05-06 02:09 32.59374 -86.65411 3500 ft 263 kts 180°
2026-05-06 02:09 32.57546 -86.65393 3500 ft 263 kts 180°
2026-05-06 02:09 32.55718 -86.65373 3500 ft 263 kts 180°
2026-05-06 02:10 32.53891 -86.65353 3507 ft 263 kts 180°
2026-05-06 02:10 32.52061 -86.65335 3500 ft 263 kts 180°
2026-05-06 02:10 32.50260 -86.65315 3500 ft 263 kts 180°
2026-05-06 02:10 32.48432 -86.65296 3501 ft 263 kts 180°
2026-05-06 02:11 32.46604 -86.65277 3500 ft 263 kts 180°
2026-05-06 02:11 32.44777 -86.65257 3500 ft 263 kts 180°
2026-05-06 02:11 32.42952 -86.65240 3501 ft 260 kts 180°
2026-05-06 02:11 32.41132 -86.65219 3500 ft 263 kts 180°
2026-05-06 02:12 32.39300 -86.65200 3500 ft 263 kts 180°
2026-05-06 02:12 32.37471 -86.65159 3499 ft 262 kts 176°
2026-05-06 02:12 32.35706 -86.64633 3487 ft 260 kts 158°
2026-05-06 02:12 32.34235 -86.63622 3481 ft 237 kts 142°
2026-05-06 02:13 32.33121 -86.62312 3471 ft 215 kts 128°
2026-05-06 02:13 32.32380 -86.60894 3466 ft 194 kts 116°
2026-05-06 02:13 32.31935 -86.59422 3471 ft 184 kts 104°
2026-05-06 02:13 32.31752 -86.57958 3445 ft 182 kts 95°
2026-05-06 02:14 32.31623 -86.56455 2750 ft 190 kts 96°
2026-05-06 02:14 32.31476 -86.54892 2411 ft 187 kts 96°
2026-05-06 02:14 32.31335 -86.53311 2325 ft 195 kts 96°
2026-05-06 02:14 32.31196 -86.51753 2241 ft 188 kts 96°
2026-05-06 02:15 32.31064 -86.50242 2151 ft 187 kts 96°
2026-05-06 02:15 32.30926 -86.48710 2068 ft 187 kts 96°
2026-05-06 02:15 32.30796 -86.47241 1653 ft 169 kts 96°
2026-05-06 02:15 32.30686 -86.45986 1277 ft 140 kts 95°
2026-05-06 02:16 32.30602 -86.44987 1006 ft 107 kts 98°
2026-05-06 02:16 32.30526 -86.44165 762 ft 94 kts 96°
2026-05-06 02:16 32.30459 -86.43422 600 ft 90 kts 96°
2026-05-06 02:16 32.30393 -86.42673 513 ft 92 kts 96°
2026-05-06 02:17 32.30322 -86.41903 394 ft 97 kts 96°
2026-05-06 02:17 32.30250 -86.41098 268 ft 96 kts 96°
2026-05-06 02:17 32.30193 -86.40423 212 ft 73 kts 96°
2026-05-06 02:17 32.30169 -86.40062 216 ft 29 kts 68°
2026-05-06 02:18 32.30299 -86.39995 212 ft 0 kts 102°